Regional Weather Roundup
Issued by NWS State College, PA

Home | Current Version | Previous Version | Text Only | Print | Product List | Glossary On
Versions: 1 2 3 4 5 6 7 8 9 10 11 12 13 14 15 16 17 18 19 20 21 22 23 24 25 26 27 28 29 30 31 32 33 34 35 36 37 38 39 40 41 42 43 44 45 46 47 48 49 50
000
ASUS41 KCTP 090503
RWRCTP

REGIONAL WEATHER ROUNDUP
NATIONAL WEATHER SERVICE STATE COLLEGE PA
1200 AM EST FRI DEC 09 2016

Note: "fair" indicates few or no clouds below 12,000 feet with no
significant weather and/or obstructions to visibility.

* = STATION THAT DOES NOT REPORT PRECIPITATION /E.G. RAIN...SNOW...ETC/
    THUNDER OR FOG.

PAZ002>004-007>009-013>016-020>023-029>032-090600-
WESTERN PENNSYLVANIA

CITY           SKY/WX    TMP DP  RH WIND       PRES   REMARKS
ERIE           FLURRIES  32  22  66 W15G30    30.13S
MEADVILLE      LGT SNOW  21  18  88 SW13G24   30.13S FOG     WCI   9
FRANKLIN*        N/A     21  14  73 SW12G24   30.15R WCI   9
NEW CASTLE     FLURRIES  23  17  78 W14       30.21S WCI  11
BEAVER COUNTY  NOT AVBL
BUTLER*        CLOUDY    23  12  63 W13       30.22F WCI  11
PITTSBURGH INT FLURRIES  25  16  68 W13G18    30.22S WCI  14
PITTSBURGH     CLOUDY    23  13  65 W15G23    30.22R WCI  10
INDIANA*       CLOUDY    23  18  80 W16G24    30.19S HAZE    WCI  10
LATROBE        FLURRIES  23  14  68 SW18G24   30.22S WCI   9
WASHINGTON CO* CLOUDY    23  16  74 W7        30.27R WCI  15
$$

PAZ004>006-010>012-017>019-024>028-033>037-041-042-045-046-049>053-090600-
CENTRAL PENNSYLVANIA

CITY           SKY/WX    TMP DP  RH WIND       PRES   REMARKS
BRADFORD       LGT SNOW  21  18  88 W9        30.01S FOG     WCI  11
DUBOIS         CLOUDY    21  15  78 W20G26    30.08S HAZE    WCI   6
CLEARFIELD     FLURRIES  23  16  74 W14       30.09S WCI  11
JOHNSTOWN      FLURRIES  19  13  77 W22G28    30.08R WCI   2
ALTOONA        CLOUDY    24  14  65 W15       30.12S WCI  11
STATE COLLEGE  CLOUDY    25  15  66 W14G23    30.10R WCI  13
WILLIAMSPORT   CLOUDY    31  16  54 W14       30.07S
SELINSGROVE    CLOUDY    30  17  58 VRB6      30.12R
FT INDIANTOWN  CLOUDY    30  13  50 W13G22    30.11R
CAPITAL CITY   CLOUDY    29  13  51 W6        30.15R
HARRISBURG     MOCLDY    31  17  56 W9        30.14R
YORK           CLEAR     28  15  58 W9        30.13S
$$

PAZ038>040-043-044-047-048-054-055-060>062-067>071-090600-
EASTERN PENNSYLVANIA

CITY           SKY/WX    TMP DP  RH WIND       PRES   REMARKS
SCRANTON       CLOUDY    30  16  56 W10       30.01R
MOUNT POCONO   MOCLDY    23  13  65 W17G29    29.90S WCI   9
ALLENTOWN      MOCLDY    31  15  52 W15G21    30.05S
QUAKERTOWN*      N/A     30  16  55 W9G18     30.06S
READING        CLOUDY    31  14  49 W14G21    30.10R
LANCASTER      PTCLDY    29  17  61 W12       30.12S
COATESVILLE    MOCLDY    28  16  59 W14       30.11S
POTTSTOWN      PTCLDY    29  14  53 W9G17     30.10S
BLUE BELL      CLEAR     30  16  55 W9G18     30.07S
DOYLESTOWN     PTCLDY    31  15  52 W10G17    30.05S
WILLOW GROVE   NOT AVBL
NORTH PHILA    CLEAR     32  14  47 W18G26    30.10S
PHILADELPHIA   PTCLDY    32  13  45 W16       30.12S
$$




USA.gov is the U.S. government's official web portal to all federal, state and local government web resources and services.